{"data":{"norad_id":59554,"intl_designator":"2024-074W","name":"STARLINK-31724","alt_names":[],"object_type":"PAYLOAD","status":"ACTIVE","operator":null,"country":"US","launch_date":"2024-04-18","launch_site_code":"AFETR","launch_vehicle":null,"mission":null,"orbit_class":"UNKNOWN","rcs_meters":null,"size_class":null,"mass_kg":null,"dimensions":null,"purposes":["comms"],"wikipedia_slug":null,"has_3d_model":false,"image_url":null,"decayed_at":null,"tle_current":{"epoch":"2026-09-21T18:42:22.158432Z","epoch_age_seconds":57604,"freshness":"FRESH","line1":"1 59554U 24074W   26264.77942313  .00000670  00000+0  33873-4 0  9991","line2":"2 59554  43.0033 280.0806 0001536 271.8204  88.2472 15.27581285136416","mean_motion":15.27581285,"eccentricity":0.0001536,"inclination_deg":43.0033,"raan_deg":280.0806,"arg_perigee_deg":271.8204,"mean_anomaly_deg":88.2472,"bstar":3.3873e-5,"rev_number":13641,"period_min":94.266669416548,"perigee_km":481.99137069674,"apogee_km":484.09912588341,"semimajor_km":6861.1822482901,"source":"CELESTRAK","updated_at":"2026-09-22T09:00:48.976024Z"}}}